AMOS-17 (44479 NORAD) Tracking and Keplerian Element Data

This shows tracking and keplerian element data for the satellite.

Feedback or suggestion? Click here.




ElementValue
Catalog44479
NameAMOS-17
Epoch Orbit82
Epoch Day293.1463078
Epoch Year2019
RAAN283.1787
Inclination0.0404
Eccentricity0.0001918
Argument of Perigee270.6536
Mean Anonmoly261.0327
Mean Motion1.00275729
Decay Rate9.2E-07
L11 44479U 19050A 19293.14630780 .00000092 00000-0 00000+0 0 9996
L22 44479 0.0404 283.1787 0001918 270.6536 261.0327 1.00275729 826

Live tracking and technical data element details for AMOS-17 (NORAD 44479). AMOS-17 can be tracked NOW for your location showing map with azimuth and elevation plus other details from your city location.

Track the satellite on the map from your city or location and see movement details for azimuth, elevation, latitude, longitude, range, height, and movement on the map or in text.







IsCatalogInMostPopularTable: catalog: 44479, numindb: 17
Update: records affected: 1



GetName: 44479 AMOS-17

Hit Count: updated at: Tue, 22 Oct 2019 23:46:28 GMT